User: anonymous   Login
Location: G�ppingen
(48.7000°N, 9.6670°E)
Time: 17:17:06
(UTC+02:00)
Language:

Tiangong 2 - Orbit

View from above orbital plane
View from above orbital plane
View from above satellite
View from above satellite

Ground track
Ground track

The orbit data is extracted from the following two-line orbital elements,

1 41765U 16057A   18289.43798503  .00004743  00000-0  62214-4 0  9996
2 41765  42.7853 339.2944 0007020   9.8830 111.6732 15.59735613118955
Epoch (UTC): 16 October 2018 10:30:41
Eccentricity: 0.0007020
inclination: 42.7853°
perigee height: 383 km
apogee height: 393 km
right ascension of ascending node: 339.2944°
argument of perigee: 9.8830°
revolutions per day: 15.59735613
mean anomaly at epoch: 111.6732°
orbit number at epoch: 11895

The dashed part of the orbit path shows where the satellite is in the earth's shadow,  

DLR